OPS 0856 DEB, 23820

Orbit data source: Space-Track

OPS 0856 DEB, 23820 is space debris in LEO originally from a launch on Fri, 19 Aug 1966 UTC launched from the Air Force Western Test Range (AFWTR). Debris objects in space refer to the collection of defunct objects orbiting the Earth. Examples of debris include non-operational satellites, rocket bodies, and fragments generated from explosions, collisions, or faulty payload assembly.

Loading next visibility...
Identifier
23820, 1966-077D
Orbit
LEO
Country
Flag of USUS
Related business
Manufacturer
Unknown
Mission
Spacecraft
Bus & Motor
Unknown
Mass
Unknown
Launch date (UTC)
1966-08-19 (59 years ago)
Launch vehicle
Unknown
Launch site
Air Force Western Test Range (AFWTR)
Object type
Payload
Rocket body
Debris
Shape & HBR
Unknown
Radar Cross Section
Small (<0.1 m²)

Expand to show TLE details & history
Last TLE update: 8 months ago

TLE from 8 months ago
0 OPS 0856 DEB
1 23820U 66077D   25018.85178970 -.00005976  00000-0 -35790+0 0  9994
2 23820  88.4548 332.4245 1835539 297.3742  45.2216  8.91045185 44048
Epoch: 2025-01-18T20:26Z
TLE epoch observation values (Epoch: 2025-01-18T20:26:34.63Z)
Latitude
-0.00004°
Longitude
-92.71493°
Altitude
2,384.203 km
Speed
7.103 km/s
True Right ascension
22h 09m 41s
True Declination
0° 00' 00"
Sunlit
Object was in daylight at epoch
Visualization orbit readout
Latitude
Unknown
Longitude
Unknown
Altitude
Unknown
Speed
Unknown
Apparent Right ascension
Unknown
Apparent Declination
Unknown
Sunlit
N/A
Visualization observer readout
Local Sidereal Time
02:56:57
Azimuth
Unknown
Elevation
Unknown
Doppler factor
Unknown
Orbital elements
Apogee altitude
5,251.148 km
Perigee altitude
1,644.044 km
Semi-major axis
9,825.733 km
Eccentricity
0.18355
Inclination
88.4548°
RAAN
332.4245°
Arg. of periapsis
297.3742°
True anomaly
62.72218°
Mean anomaly
45.2216°
Eccentric anomaly
53.69713°
Mean motion
2.22841 °/min
Orbital period
161.55 mins
BSTAR
-0.3579
Loading maneuver chart data...
Computing Atmospheric mass density...
Loading historical data...
Loading historical data...
Loading historical data...
Loading historical data...
Loading historical data...
Loading historical data...
Loading historical data...

Documentation

Showing up to 5 results
|